Wind_Speed
7 8 12 16 20 19 18 17 18 16 14 13 13 12 12 13 15 14 13 12 11 11 12 12 15 14 14 14 16 17 17 15 11 13 14 14 15 17 18 19 21 21 15
8 8 9 15 19 20 18 18 18 17 15 15 14 15 15 17 15 14 15 15 13 14 18 17 18 18 16 16 16 18 18 19 16 15 15 17 18 17 17 14 18 15 16
8 7 8 12 16 18 16 17 18 17 15 15 15 15 15 16 16 15 15 15 15 16 17 18 19 21 20 20 20 19 21 22 20 20 18 16 16 18 17 15 12 15 15
8 6 6 8 12 14 16 17 16 15 14 14 14 14 15 16 16 15 16 16 17 17 18 19 20 22 21 21 23 23 24 25 23 22 21 20 20 19 20 17 20 21 21
10 7 7 9 11 14 14 14 14 13 14 14 15 16 17 17 18 20 22 22 23 24 23 23 24 25 24 25 25 24 26 25 27 26 24 23 22 21 20 18 19 21 20
13 11 12 12 11 12 12 12 12 11 13 14 15 16 17 17 19 22 23 24 24 23 24 24 24 25 26 27 29 27 28 29 27 27 26 27 25 24 22 25 23 23 21
15 13 13 14 14 13 12 10 7 6 7 7 9 12 14 17 20 22 24 24 25 27 28 29 25 24 24 26 30 31 31 31 30 30 30 28 27 25 25 23 25 27 25
16 16 15 15 15 14 11 8 9 12 15 17 19 21 22 24 26 27 27 26 25 27 28 29 30 29 29 28 29 31 34 35 35 34 33 29 29 28 28 25 26 29 29
17 18 18 17 16 13 12 14 15 18 20 23 25 24 25 26 28 28 29 31 33 34 35 35 36 35 34 34 38 37 35 36 36 37 36 34 32 31 31 31 30 30 30
19 19 20 20 18 18 17 18 17 20 21 21 24 26 27 30 31 31 32 34 36 37 38 38 39 42 42 42 42 42 42 39 36 36 38 37 34 34 35 35 34 32 33
24 24 23 24 23 23 22 21 23 25 24 23 26 28 30 30 31 33 35 36 37 37 35 33 33 34 36 38 41 42 40 38 39 39 40 39 37 37 36 35 35 33 35
29 29 29 30 30 28 27 26 24 24 23 24 27 30 32 32 34 34 35 36 37 36 34 33 33 33 34 34 34 36 38 35 36 37 38 39 39 38 37 37 36 36 36
38 37 35 32 34 34 32 30 24 23 22 24 28 31 32 33 33 34 35 34 35 37 38 37 36 33 33 33 34 34 34 35 34 35 38 38 37 38 38 38 37 37 37
36 42 46 39 36 37 35 30 25 22 23 27 29 30 31 31 31 30 32 32 34 40 39 38 39 36 34 33 31 32 33 34 35 33 33 37 38 36 37 37 36 36 38
49 52 57 48 37 35 31 26 26 25 25 27 29 29 28 28 26 26 26 29 36 30 27 28 28 28 31 32 32 31 34 32 35 36 36 35 36 38 37 37 36 36 35
30 39 45 52 40 30 25 24 25 27 26 27 28 27 26 24 23 21 23 28 28 25 21 21 17 14 12 15 19 22 25 28 28 29 29 31 33 30 36 38 39 39 39
38 43 45 50 57 19 14 22 27 27 25 27 26 26 25 22 19 20 19 21 23 23 18 17 12 8 6 9 10 13 15 17 19 26 28 28 31 30 33 34 35 36 39
42 43 46 34 32 34 21 22 25 26 25 25 25 24 20 18 15 18 15 18 17 18 16 17 15 10 11 8 9 10 13 19 16 19 20 21 22 28 26 27 32 29 28
35 35 34 34 33 27 26 21 23 23 24 23 23 18 15 15 13 12 10 11 11 11 15 17 17 16 11 6 7 9 13 7 13 23 20 20 23 19 23 24 23 24 25
9 18 27 34 37 36 26 20 21 21 23 22 17 16 13 12 11 9 8 9 10 9 13 13 15 14 14 13 13 7 7 11 11 12 14 19 19 22 21 22 22 23 26
8 6 37 26 28 25 19 17 21 22 22 18 14 13 11 10 9 9 7 8 8 8 9 11 12 14 16 13 10 9 10 12 11 5 8 13 13 16 21 25 25 24 23
15 14 26 33 30 19 16 21 21 20 19 14 13 12 11 11 10 9 8 8 7 6 7 8 10 11 12 13 13 12 9 7 8 7 7 8 7 6 5 5 2 2 3
17 16 19 21 19 19 22 21 19 18 16 12 13 12 12 12 10 9 10 9 8 7 6 8 9 10 11 12 12 12 11 10 8 8 8 8 8 6 4 3 3 4 5
22 18 16 19 20 21 20 18 17 16 15 13 13 11 8 6 3 4 6 7 6 7 8 8 9 10 10 11 12 12 11 11 11 11 10 9 8 8 7 7 6 7 8
23 23 21 20 20 19 18 16 14 12 11 12 12 9 5 1 1 2 5 6 6 5 7 8 11 12 11 13 16 12 10 11 12 13 13 13 12 11 11 11 11 10 10
26 27 26 21 23 21 18 15 13 11 11 10 9 9 7 4 3 3 5 6 8 9 10 9 10 13 12 8 11 12 11 13 18 19 15 14 13 12 11 11 12 11 11
Wind_Direction
230 236 234 227 221 220 218 214 212 220 221 227 244 230 237 245 252 247 249 257 245 242 266 258 259 256 258 257 249 248 252 258 263 262 271 259 256 264 259 253 270 266 259
230 239 237 231 225 220 219 218 218 221 228 235 236 239 240 244 246 241 251 265 261 248 247 252 255 259 266 267 263 255 260 261 262 256 266 266 256 257 259 265 270 234 260
231 233 232 230 223 219 216 217 217 218 221 225 233 236 239 242 246 248 252 256 261 263 262 263 262 264 267 268 264 260 260 257 259 259 261 261 258 248 257 256 250 254 265
228 223 223 211 206 205 208 214 222 222 220 223 229 232 235 239 246 250 254 259 261 263 268 272 271 271 271 269 267 265 262 261 260 262 263 262 258 251 255 264 267 263 264
206 208 213 207 206 203 203 207 210 218 228 230 233 237 242 248 253 258 260 262 267 272 276 274 271 268 266 267 267 268 270 269 263 261 261 262 259 257 265 264 272 262 260
220 220 212 204 205 197 201 214 225 230 240 252 258 260 262 267 268 267 269 269 271 270 271 276 274 270 269 266 267 265 266 267 268 265 264 262 262 259 262 264 266 262 261
229 221 213 206 204 206 206 197 204 223 246 262 269 276 279 276 274 277 277 275 274 275 277 278 276 274 271 269 265 265 262 263 265 265 265 266 266 262 258 256 254 257 259
220 215 211 203 200 199 205 221 244 261 269 274 275 274 272 277 277 277 278 274 277 279 277 276 272 271 271 270 267 263 261 260 261 264 263 262 263 261 255 256 258 256 255
213 211 208 205 205 215 230 246 257 264 270 276 278 282 284 284 282 280 278 276 278 278 275 275 273 270 266 264 264 263 261 259 260 261 261 260 259 260 260 256 256 262 264
220 215 215 221 227 234 242 255 270 280 281 284 285 285 288 288 286 284 281 280 280 280 278 275 272 270 268 264 261 262 262 262 262 259 258 258 255 255 255 256 258 258 264
218 222 230 232 239 242 248 257 269 275 275 282 287 291 295 292 290 291 291 290 289 287 284 280 276 272 269 267 264 260 261 261 255 255 255 255 256 255 257 260 262 261 264
225 227 228 238 245 248 252 256 265 273 278 285 290 294 295 295 295 295 294 294 292 289 285 282 278 272 267 265 265 264 260 262 259 255 254 254 257 257 259 261 259 261 260
230 231 233 238 249 252 255 259 261 266 274 284 292 295 296 297 297 299 299 297 296 292 287 283 278 271 267 264 263 260 260 257 256 258 257 255 255 255 257 259 261 262 263
254 243 240 234 241 251 255 255 257 260 274 287 291 294 296 296 300 300 303 304 309 301 291 285 278 271 265 263 263 259 258 256 255 255 256 257 256 254 256 258 259 261 262
249 259 248 259 236 238 244 246 252 263 278 287 290 295 296 299 299 302 310 310 315 317 302 294 295 275 261 261 261 262 257 256 256 253 254 256 258 255 255 256 258 259 261
280 272 245 248 254 215 227 240 256 268 279 287 294 294 295 295 291 298 318 332 336 334 329 321 310 306 284 273 267 267 258 253 260 252 255 257 258 260 256 255 258 260 262
278 270 262 257 250 287 247 258 266 271 281 290 291 292 293 286 277 303 319 341 351 352 338 322 334 316 308 302 288 275 265 263 264 263 264 263 261 261 260 258 263 263 260
281 266 258 259 249 229 232 254 269 272 283 287 287 286 282 276 281 298 317 336 354 357 0 9 358 320 310 312 306 291 273 253 260 261 257 262 277 272 266 273 264 267 261
260 267 253 238 243 208 235 244 258 272 280 277 277 274 272 280 284 292 318 330 340 352 353 353 355 18 12 323 281 287 286 297 268 252 256 275 262 273 260 268 264 279 277
261 259 213 221 223 217 230 236 255 262 267 267 262 263 267 273 272 283 315 332 337 342 347 3 10 5 12 26 29 4 305 283 264 269 247 265 271 268 277 266 272 270 268
267 192 168 191 195 218 229 245 244 250 254 249 248 252 255 261 265 280 307 323 334 343 1 3 12 19 25 28 23 28 44 48 42 17 276 282 270 269 260 268 268 274 273
202 185 190 210 215 223 232 233 231 237 237 239 238 240 241 251 258 272 291 302 313 336 4 11 9 18 21 23 28 33 41 48 55 53 53 44 42 40 32 49 336 273 253
213 209 216 212 210 222 220 217 226 225 228 226 226 235 240 246 255 270 288 295 298 317 347 358 359 8 14 15 15 15 14 17 15 12 9 1 357 345 323 317 283 281 295
215 215 215 212 215 212 213 218 217 216 216 210 210 212 227 249 271 294 295 307 329 356 1 8 11 4 8 14 11 7 3 358 355 351 348 343 341 336 329 319 305 291 285
211 203 214 211 208 209 203 201 198 196 194 204 214 214 214 201 12 349 325 328 344 14 28 11 359 354 3 8 5 358 356 2 358 347 340 334 329 326 323 321 320 317 312
202 194 185 194 198 187 186 178 180 187 184 194 199 204 210 203 210 255 290 285 298 307 310 318 327 322 325 331 340 342 343 333 331 328 337 329 323 319 321 323 319 314 310
Height
3167 3168 3170 3171 3173 3175 3178 3181 3183 3186 3188 3191 3192 3193 3194 3195 3197 3197 3198 3197 3197 3198 3198 3199 3199 3198 3197 3197 3198 3199 3200 3200 3199 3199 3199 3199 3200 3200 3199 3200 3200 3200 3201
3164 3166 3167 3169 3171 3173 3176 3179 3181 3184 3186 3188 3189 3191 3192 3193 3193 3194 3195 3195 3195 3195 3195 3195 3196 3195 3195 3194 3194 3195 3195 3195 3197 3197 3196 3196 3196 3196 3196 3195 3194 3196 3197
3163 3163 3164 3166 3169 3172 3175 3177 3179 3180 3183 3185 3186 3188 3189 3190 3190 3191 3191 3191 3192 3193 3193 3193 3193 3192 3192 3191 3190 3190 3190 3191 3192 3193 3193 3193 3192 3192 3192 3193 3193 3193 3192
3162 3163 3164 3165 3167 3169 3172 3175 3178 3179 3180 3182 3183 3185 3185 3186 3187 3188 3188 3188 3187 3188 3188 3188 3188 3188 3188 3187 3186 3186 3186 3186 3187 3187 3188 3188 3189 3188 3188 3188 3189 3189 3189
3161 3163 3164 3165 3167 3169 3170 3173 3175 3177 3179 3179 3180 3181 3182 3182 3183 3183 3183 3183 3183 3183 3184 3183 3183 3183 3182 3181 3181 3181 3180 3180 3180 3181 3181 3182 3183 3183 3184 3184 3184 3184 3184
3159 3161 3162 3164 3166 3168 3171 3173 3174 3175 3177 3178 3179 3179 3179 3179 3178 3177 3177 3177 3177 3178 3177 3177 3177 3176 3176 3176 3174 3174 3174 3173 3174 3174 3175 3175 3177 3177 3177 3178 3178 3179 3179
3158 3159 3160 3162 3164 3166 3168 3170 3173 3174 3175 3176 3176 3177 3177 3175 3173 3173 3172 3172 3172 3172 3172 3171 3170 3170 3169 3168 3168 3167 3167 3166 3167 3168 3168 3170 3170 3171 3171 3171 3172 3174 3173
3154 3156 3157 3159 3162 3164 3166 3168 3170 3172 3172 3173 3173 3174 3173 3172 3170 3169 3168 3167 3166 3165 3165 3163 3162 3162 3161 3161 3159 3158 3158 3159 3160 3160 3160 3163 3163 3163 3164 3165 3166 3165 3166
3151 3154 3156 3158 3160 3161 3164 3166 3167 3167 3168 3168 3169 3168 3168 3166 3164 3163 3161 3160 3158 3157 3156 3154 3152 3151 3152 3151 3149 3148 3149 3149 3151 3152 3153 3154 3155 3155 3157 3157 3157 3159 3159
3150 3153 3155 3156 3158 3158 3159 3160 3161 3162 3162 3161 3161 3161 3161 3159 3157 3154 3153 3150 3148 3146 3145 3143 3141 3139 3138 3138 3137 3137 3137 3141 3142 3142 3143 3144 3146 3146 3147 3148 3149 3150 3151
3144 3148 3152 3153 3153 3154 3154 3155 3156 3157 3157 3156 3156 3154 3152 3151 3149 3147 3144 3141 3138 3135 3132 3131 3129 3126 3125 3124 3124 3125 3126 3129 3130 3131 3132 3135 3137 3138 3139 3140 3140 3143 3143
3137 3139 3141 3147 3149 3149 3150 3149 3149 3150 3149 3149 3148 3146 3145 3143 3141 3138 3135 3131 3128 3124 3121 3119 3116 3115 3114 3113 3113 3113 3114 3116 3118 3120 3122 3125 3127 3129 3131 3131 3132 3132 3133
3126 3129 3133 3137 3142 3143 3144 3143 3142 3141 3142 3142 3141 3140 3138 3135 3132 3129 3125 3121 3117 3113 3110 3106 3104 3103 3102 3102 3102 3103 3104 3105 3107 3109 3112 3114 3117 3119 3119 3121 3122 3123 3124
3110 3119 3124 3125 3132 3136 3137 3138 3140 3136 3134 3135 3134 3133 3130 3128 3126 3123 3119 3114 3108 3102 3096 3092 3089 3088 3088 3089 3090 3092 3093 3095 3097 3099 3101 3103 3105 3109 3110 3112 3113 3113 3114
3106 3110 3109 3106 3118 3126 3129 3131 3133 3132 3128 3128 3128 3126 3123 3120 3119 3117 3115 3109 3099 3093 3088 3083 3078 3074 3075 3077 3079 3081 3083 3085 3087 3090 3092 3094 3095 3098 3101 3102 3103 3104 3105
3095 3093 3093 3102 3080 3108 3118 3123 3125 3124 3121 3120 3120 3119 3117 3114 3114 3113 3110 3103 3094 3087 3084 3079 3072 3068 3066 3067 3069 3071 3073 3076 3077 3080 3083 3085 3086 3088 3090 3092 3093 3094 3095
3085 3085 3084 3084 3074 3089 3105 3115 3117 3116 3113 3112 3113 3113 3111 3110 3109 3109 3105 3100 3093 3088 3085 3078 3072 3067 3065 3064 3064 3065 3066 3068 3070 3072 3073 3076 3076 3078 3080 3081 3082 3083 3084
3068 3069 3067 3071 3079 3097 3103 3106 3108 3109 3105 3106 3108 3108 3106 3105 3106 3106 3103 3097 3090 3086 3086 3081 3073 3066 3062 3060 3060 3061 3062 3062 3063 3066 3067 3067 3069 3069 3071 3071 3072 3073 3074
3061 3059 3063 3069 3073 3086 3092 3095 3101 3100 3098 3101 3103 3103 3102 3102 3103 3102 3099 3095 3091 3086 3083 3081 3075 3066 3060 3057 3057 3058 3057 3058 3059 3061 3062 3062 3063 3063 3062 3064 3065 3065 3065
3051 3050 3052 3064 3067 3076 3083 3088 3091 3092 3094 3097 3099 3098 3098 3099 3099 3099 3095 3092 3090 3085 3081 3078 3074 3068 3062 3059 3057 3057 3055 3054 3054 3054 3055 3057 3057 3058 3057 3057 3057 3057 3058
3048 3042 3047 3061 3066 3071 3075 3078 3084 3088 3091 3093 3093 3093 3094 3096 3096 3096 3092 3090 3088 3085 3080 3077 3074 3068 3064 3061 3060 3058 3056 3054 3053 3052 3053 3053 3052 3051 3052 3052 3050 3050 3050
3050 3053 3057 3062 3065 3066 3070 3078 3083 3086 3088 3088 3088 3088 3091 3094 3093 3092 3090 3088 3087 3085 3080 3076 3073 3069 3065 3063 3061 3060 3058 3057 3056 3055 3054 3053 3051 3050 3050 3049 3048 3048 3047
3047 3050 3056 3059 3062 3066 3071 3075 3078 3081 3082 3084 3083 3086 3089 3091 3089 3087 3087 3086 3086 3084 3080 3076 3073 3069 3066 3064 3063 3061 3060 3059 3057 3055 3054 3053 3051 3051 3050 3050 3049 3048 3047
3045 3049 3053 3056 3060 3063 3067 3070 3074 3075 3078 3080 3082 3085 3088 3089 3083 3083 3085 3085 3083 3083 3080 3077 3073 3068 3066 3064 3063 3062 3060 3059 3058 3056 3055 3053 3051 3050 3050 3049 3048 3046 3045
3041 3046 3050 3054 3058 3062 3065 3068 3070 3072 3076 3081 3083 3085 3086 3084 3081 3081 3081 3081 3083 3080 3078 3076 3072 3069 3066 3064 3063 3061 3060 3059 3058 3056 3055 3053 3051 3050 3049 3048 3046 3044 3043
3035 3041 3046 3051 3055 3058 3062 3066 3070 3073 3076 3080 3082 3083 3083 3080 3080 3081 3081 3081 3079 3077 3075 3072 3070 3067 3065 3062 3061 3060 3059 3058 3057 3055 3053 3051 3049 3048 3047 3046 3044 3042 3040